Regional Weather Roundup
Issued by NWS Albany, NY

Home | Current Version | Previous Version | Text Only | Print | Product List | Glossary On
Versions: 1 2 3 4 5 6 7 8 9 10 11 12 13 14 15 16 17 18 19 20 21 22 23 24 25 26 27 28 29 30 31 32 33 34 35 36 37 38 39 40 41 42 43 44 45 46 47 48 49
000
ASUS41 KALY 190310
RWRALY

NEW YORK STATE HOURLY WEATHER ROUNDUP
NATIONAL WEATHER SERVICE ALBANY NY
1100 PM EDT THU SEP 18 2014

NOTE: "FAIR" INDICATES FEW OR NO CLOUDS BELOW 12,000 FEET WITH NO
SIGNIFICANT WEATHER AND/OR NO OBSTRUCTIONS TO VISIBILITY.

NYZ032-033-038>043-046>054-057>066-NYZ062>081-190400-
EAST


CITY           SKY/WX    TMP DP  RH WIND       PRES   REMARKS
ALBANY         MOCLDY    52  41  66 N13       30.18R
GLENS FALLS    PTCLDY    45  40  82 N7        30.19R
POUGHKEEPSIE   CLOUDY    60  50  69 N5        30.12R
NEWBURGH       MOCLDY    63  52  67 E14       30.13R
MONTGOMERY     MOCLDY    57  51  80 NE8       30.12R
WHITE PLAINS   CLEAR     60  49  66 N12       30.09R
ISLIP          PTCLDY    60  54  80 N3        30.07R
NEW YORK CITY  PTCLDY    68  50  52 N10       30.08R
CENTRAL PARK   CLEAR     67  45  45 VRB3      30.11R
$$

NYZ005>009-017-018-044>046-055-056-190400-
CENTRAL


CITY           SKY/WX    TMP DP  RH WIND       PRES   REMARKS
FULTON         MOCLDY    46  36  68 NE9       30.23R
SYRACUSE       PTCLDY    46  39  76 N6        30.22R
ROME           CLEAR     45  38  76 N7        30.21R
ELMIRA         CLEAR     47  45  93 N5        30.20R
BINGHAMTON     CLEAR     47  44  90 N7        30.18R
MONTICELLO     PTCLDY    52  48  87 NW5       30.15R
$$

NYZ026>034-041>043-190400-
NORTH


CITY           SKY/WX    TMP DP  RH WIND       PRES   REMARKS
WATERTOWN      CLEAR     40  33  76 NE3       30.25R
FORT DRUM      NOT AVBL
MASSENA        CLEAR     40  30  67 N6        30.27R
SARANAC LAKE   CLEAR     34  30  85 N3        30.19R
PLATTSBURGH    PTCLDY    42  34  73 NW8       30.23R
$$

NYZ001>004-010>016-019>021-190400-
WEST


CITY           SKY/WX    TMP DP  RH WIND       PRES   REMARKS
NIAGARA FALLS  PTCLDY    43  40  89 CALM      30.21R
BUFFALO        PTCLDY    47  44  90 E3        30.21R
DUNKIRK        PTCLDY    48  46  93 E3        30.21R
JAMESTOWN      CLEAR     48  45  87 NE7       30.19S
WELLSVILLE     MOCLDY    46  44  93 N5        30.20R
ROCHESTER      CLEAR     43  41  93 CALM      30.22R
PENN YAN       CLOUDY    47  44  90 CALM      30.21S
$$

             KEY
       WCI = WIND CHILL INDEX
       VSB = VISIBILITY
       HX  = HEAT INDEX
$$



USA.gov is the U.S. government's official web portal to all federal, state and local government web resources and services.